Location: Trento
(46.0670°N, 11.1330°E)
Time: 09:16:58
(UTC+02:00)

ISS - Visible Passes

Search period start: 08 May 2021 00:00
Search period end: 18 May 2021 00:00
Orbit: 418 x 421 km, 51.6° (Epoch: 08 May)

Date Brightness Start Highest point End Pass type
(mag) Time Alt. Az. Time Alt. Az. Time Alt. Az.
08 May -2.7 02:49:24 44° N 02:49:24 44° N 02:52:27 10° ENE visible
08 May -1.9 04:23:26 10° WNW 04:26:28 30° N 04:29:32 10° ENE visible
09 May -1.6 02:03:26 25° NE 02:03:26 25° NE 02:05:02 10° ENE visible
09 May -1.9 03:36:23 13° WNW 03:38:55 30° N 03:41:58 10° ENE visible
09 May -2.5 05:12:57 10° WNW 05:16:13 44° NNE 05:19:29 10° E visible
10 May -0.7 01:17:27 11° ENE 01:17:27 11° ENE 01:17:36 10° ENE visible
10 May -2.1 02:50:22 27° NW 02:51:20 32° N 02:54:27 10° ENE visible
10 May -2.2 04:25:31 10° WNW 04:28:42 36° NNE 04:31:52 10° E visible
11 May -2.1 02:04:21 34° NNE 02:04:21 34° NNE 02:06:58 10° ENE visible
11 May -1.9 03:38:02 10° WNW 03:41:08 32° N 03:44:14 10° ENE visible
12 May -1.3 01:18:16 20° NE 01:18:16 20° NE 01:19:31 10° ENE visible
12 May -1.8 02:51:12 14° NW 02:53:34 30° N 02:56:37 10° ENE visible
12 May -3.1 04:27:27 10° WNW 04:30:49 59° NNE 04:34:09 10° ESE visible
13 May -1.8 02:05:02 26° NW 02:05:59 30° N 02:09:02 10° ENE visible
13 May -2.6 03:40:02 10° WNW 03:43:19 45° NNE 03:46:34 10° E visible
14 May -1.9 01:18:38 32° N 01:18:38 32° N 01:21:31 10° ENE visible
14 May -2.2 02:52:35 10° WNW 02:55:46 37° NNE 02:58:56 10° E visible
14 May -3.8 04:29:24 10° WNW 04:32:45 65° SSW 04:36:05 10° SE visible
14 May -1.7 21:16:52 10° SE 21:17:38 11° SE 21:18:24 10° ESE visible
14 May -3.9 22:50:32 10° SW 22:53:52 66° SSE 22:55:41 25° ENE visible
15 May -2.2 00:27:41 10° W 00:30:51 36° NNW 00:34:01 10° ENE visible
15 May -1.9 02:05:07 10° WNW 02:08:12 32° N 02:11:18 10° ENE visible
15 May -3.8 03:41:56 10° WNW 03:45:20 84° NNE 03:48:42 10° ESE visible
15 May -3.4 22:03:18 10° SW 22:06:29 41° SE 22:09:42 10° ENE visible
15 May -2.6 23:40:04 10° W 23:43:19 44° NNW 23:46:35 10° ENE visible
16 May -1.8 01:17:35 10° WNW 01:20:38 30° N 01:23:40 10° ENE visible
16 May -3.2 02:54:31 10° WNW 02:57:52 59° NNE 03:01:13 10° ESE visible
16 May -2.8 04:31:36 10° W 04:34:30 26° SW 04:37:23 10° SSE visible
16 May -2.8 21:16:18 10° SSW 21:19:10 27° SE 21:22:04 10° E visible
16 May -3.2 22:52:29 10° WSW 22:55:49 59° NNW 22:59:09 10° ENE visible
17 May -1.8 00:30:01 10° WNW 00:33:03 30° N 00:36:05 10° ENE visible
17 May -2.7 02:07:06 10° WNW 02:10:21 45° NNE 02:13:37 10° E visible
17 May -3.4 03:43:58 10° WNW 03:47:10 41° SW 03:50:22 10° SE visible
17 May -3.7 22:04:58 10° WSW 22:08:20 83° NNW 22:11:43 10° ENE visible
17 May -1.9 23:42:22 10° WNW 23:45:28 32° N 23:48:33 10° ENE visible
